Regional Weather Roundup
Issued by NWS Upton, NY

Current Version | Previous Version | Graphics & Text | Print | Product List | Glossary Off
Versions: 1 2 3 4 5 6 7 8 9 10 11 12 13 14 15 16 17 18 19 20 21 22 23 24 25 26 27 28 29 30 31 32 33 34 35 36 37 38 39 40 41 42 43 44 45 46 47 48 49 50

936
ASUS41 KOKX 280309
RWROKX

REGIONAL WEATHER ROUNDUP
NATIONAL WEATHER SERVICE NEW YORK NY
1100 PM EDT THU JUL 27 2017

NOTE: "FAIR" INDICATES FEW OR NO CLOUDS BELOW 12,000 FEET WITH NO
SIGNIFICANT WEATHER AND/OR OBSTRUCTIONS TO VISIBILITY.

NYZ071-072-176-178-NJZ106-104-280400-
NEW YORK CITY METRO AREA

CITY           SKY/WX    TMP DP  RH WIND       PRES   REMARKS
Central Park   CLOUDY    75  69  81 CALM      29.91F
Bronx Bot Gard   N/A     72  68  88 E1        29.90R
LaGuardia APRT CLOUDY    77  71  82 S8        29.87F
Kennedy INTL   CLOUDY    75  73  93 SW12      29.89F
Breezy Point     N/A     73 N/A N/A SW6         N/A
Newark/Liberty CLOUDY    76  69  79 S9        29.88F
Teterboro      CLOUDY    73  69  87 CALM      29.87S
$$

NYZ177-179-078>081-280400-
LONG ISLAND NEW YORK

CITY           SKY/WX    TMP DP  RH WIND       PRES   REMARKS
Jones Beach      N/A     72 N/A N/A S6          N/A
Matinecock PT    N/A     73 N/A N/A SW8         N/A
Farmingdale    CLOUDY    74  70  87 SW12      29.89F
MacArthur/ISP  CLOUDY    74  71  91 SW9       29.88F
Shirley        CLOUDY    74  72  93 S9        29.90F
Mt Sinai Harb    N/A    N/A N/A N/A S6          N/A
Westhampton    CLOUDY    72  68  87 SW8       29.91F
East Hampton   CLOUDY    70  68  92 SW5       29.89F
Montauk          N/A     71  69  93 VRB5      29.91F
$$

NYZ052-065-067-280400-
HUDSON VALLEY

CITY           SKY/WX    TMP DP  RH WIND       PRES   REMARKS
White Plains   CLOUDY    70  68  93 CALM      29.89F
Larchmont Harb   N/A     72 N/A N/A SW3         N/A
Croton O-T Hud   N/A     72 N/A N/A MISG        N/A
Newburgh       PTCLDY    68  68 100 CALM      29.90F
Montgomery     PTCLDY    66  65  96 CALM      29.88F FOG
Poughkeepsie   CLEAR     70  67  90 CALM      29.87F
Albany         FOG       66  64  93 CALM      29.88F VSB 1
$$

NJZ001-105-106-008-010-013-015-019>022-104-280400-
NEW JERSEY

CITY           SKY/WX    TMP DP  RH WIND       PRES   REMARKS
Newark/Liberty CLOUDY    76  69  79 S9        29.88F
Teterboro      CLOUDY    73  69  87 CALM      29.87S
Caldwell       CLOUDY    71  70  96 CALM      29.89F
Somerville     CLOUDY    72  71  97 CALM      29.87F FOG
Linden         CLOUDY    76  69  77 CALM      29.88F
Perth Amboy      N/A     73 N/A N/A SW9         N/A
Sussex         MOCLDY    68  68 100 CALM      29.89F FOG
Andover          N/A     67  65  93 S3        29.90F
Trenton        CLOUDY    73  70  90 S5        29.88F
Millville      CLOUDY    73  73 100 CALM      29.87F
Atlantic City  MOCLDY    76  73  91 S6        29.88F
Wrightstown    MOCLDY    72  68  88 CALM      29.86S
Toms River     CLOUDY    73  70  90 CALM      29.89F
Belmar         PTCLDY    73  69  87 CALM      29.90F
$$

PAZ047>061-062-071-280400-
EASTERN PENNSYLVANIA

CITY           SKY/WX    TMP DP  RH WIND       PRES   REMARKS
Philadelphia   MOCLDY    75  70  84 SE3       29.88F
Allentown      MOCLDY    70  66  87 N3        29.89F FOG
Scranton       CLEAR     69  67  93 CALM      29.91S
$$

CTZ002-004>006-009-010-012-RIZ004-006-007-MAZ004-011-015-280400-
SOUTHERN NEW ENGLAND
 IN CT

CITY           SKY/WX    TMP DP  RH WIND       PRES   REMARKS
Bradley INTL   PTCLDY    69  66  90 S5        29.89S
Hartford       CLOUDY    72  68  87 S3        29.88F
Danbury        MOCLDY    69  67  93 CALM      29.90F FOG
Wtrbury/Oxford CLOUDY    70  64  83 CALM      29.91F
Bridgeport     CLOUDY    73  69  87 SW5       29.88F
Meriden        CLOUDY    71  68  90 CALM      29.89F
New Haven      CLOUDY    73  69  87 VRB5      29.89F
Chester        CLOUDY    72  70  94 CALM      29.91S
Groton         CLOUDY    70  67  90 SW5       29.89S
Wilimantic     PTCLDY    68  67  96 CALM      29.90S

 IN RI

CITY           SKY/WX    TMP DP  RH WIND       PRES   REMARKS
Providence     CLOUDY    68  67  96 SW5       29.90F
Block Island   CLOUDY    69  67  93 SW12      29.91S
Westerly       CLOUDY    71  68  90 SW5       29.91S
 IN MA

CITY           SKY/WX    TMP DP  RH WIND       PRES   REMARKS
Boston         CLOUDY    67  65  93 SW13      29.86F
Worcester      CLOUDY    65  63  93 SW8       29.91S FOG
Westfield      FOG       67  67 100 CALM      29.89S VSB 1/4
Provincetown   CLOUDY    65  63  93 SW13      29.88F
Nantucket      CLOUDY    65  64  97 SW12      29.91F
$$

ANZ330-335-338-340-345-350-353-355-280400-
COASTAL MARINE OBSERVATIONS


STATION/POSITION TIME  SKY/WX   TEMP    WIND        PRES    VSBY  WAVE
                                AIR SEA DIR/SP/G                  HT/PER
                 (UTC)          (F)     (DEG/KT/KT) (MB)    (MI)  (FT/S)
NY HARB ENTRANCE 0150            74 73  200/ 12/ 14 1011.8          2/ 4
20 S FIRE ISLAND 0250            74 74  190/ 12/ 16 1011.8          3/ 4
GREAT SOUTH BAY  0230            73 76  220/ 14/ 17   N/A
23 SSW MONTAUK P 0150            72 69              1012.7          3/ 4
15 E BARNEGAT LI 0230               73                N/A           3/ 8
HUDSON CANYON    0150            72 72  190/ 10/ 12 1012.8          3/ 8
KINGS POINT      0236            74 72  210/  7/  8 1011.7
EXECUTION ROCKS  0245            74     180/  6/  8   N/A
CENTRAL LI SOUND NOT AVBL
EASTERN LI SOUND NOT AVBL
ROBBINS REEF     0236                   180/  5/  5 1012.5
$$


>>>>>>>>>>>>>>>>>>>>>>>>>>>> KEY <<<<<<<<<<<<<<<<<<<<<<<<<<<
>                                                          <
>     SKY/WX - Sky Condition/Present Weather               <
>     TMP    - Temperature in Fahrenheit                   <
>     DP     - Dew Point in Fahrenheit                     <
>     RH     - Relative Humidity in Percent                <
>     WIND   - Direction (from) and Speed in MPH           <
>     PRES   - Mean Sea Level Pressure (inches of Hg)      <
>     WCI    - Wind Chill Index                            <
>     VSB    - VISIBILITY IN MILES                         <
>     HX     - HEAT INDEX                                  <
>     TC     - TEMPERATURE IN CELSIUS                      <
>     VRB    - VARIABLE WIND DIRECTION                     <
>                                                          <
>>>>>>>>>>>>>>>>>>>>>>>>>>>> KEY <<<<<<<<<<<<<<<<<<<<<<<<<<<




USA.gov is the U.S. government's official web portal to all federal, state and local government web resources and services.